This demonstration page uses our WeatherBlox Daily Observations layout. Learn more.

Left ArrowRight Arrow

Hourly Observations for September 27, 2017

Temp ( °F °C ) Dew Point ( °F °C ) Humidity (%) Winds ( mph kmh ) Pressure ( in mb ) Visibility ( mi km ) Precip ( " mm )
12:12 am 00:12 Clear 68 20 63 17 83 83 SSE 5 7 30.00 1016 10 16 N/A
12:32 am 00:32 Clear 68 20 63 17 83 83 S 5 7 29.97 1015 10 16 N/A
12:52 am 00:52 Partly Cloudy 70 21 63 17 78 78 S 3 6 29.94 1014 10 16 N/A
1:12 am 01:12 Partly Cloudy 70 21 63 17 78 78 S 6 9 29.94 1014 10 16 N/A
1:32 am 01:32 Partly Cloudy 70 21 63 17 78 78 S 6 9 29.94 1014 10 16 N/A
1:52 am 01:52 Clear 70 21 63 17 78 78 S 5 7 29.94 1014 10 16 N/A
2:12 am 02:12 Clear 68 20 63 17 83 83 N N/A 30.00 1016 10 16 N/A
2:31 am 02:31 Clear 66 19 63 17 88 88 N N/A 30.00 1016 10 16 N/A
2:52 am 02:52 Clear 66 19 63 17 88 88 S 3 6 30.00 1016 10 16 N/A
3:12 am 03:12 Clear 66 19 63 17 88 88 N N/A 30.00 1016 10 16 N/A
3:32 am 03:32 Clear 66 19 63 17 88 88 N N/A 30.00 1016 10 16 N/A
3:52 am 03:52 Clear 66 19 61 16 83 83 N N/A 30.00 1016 10 16 N/A
4:12 am 04:12 Partly Cloudy 64 18 63 17 94 94 N N/A 30.00 1016 10 16 N/A
4:32 am 04:32 Mostly Cloudy 64 18 61 16 88 88 N N/A 30.00 1016 10 16 N/A
4:52 am 04:52 Partly Cloudy 64 18 63 17 94 94 N N/A 30.00 1016 10 16 N/A
5:12 am 05:12 Clear 64 18 63 17 94 94 N N/A 30.00 1016 10 16 N/A
5:32 am 05:32 Clear 64 18 61 16 88 88 N N/A 29.97 1015 10 16 N/A
5:52 am 05:52 Partly Cloudy 64 18 63 17 94 94 N N/A 29.97 1015 10 16 N/A
6:12 am 06:12 Partly Cloudy 64 18 63 17 94 94 N N/A 29.97 1015 10 16 N/A
6:32 am 06:32 Clear 63 17 61 16 94 94 N N/A 30.00 1016 10 16 N/A
6:52 am 06:52 Clear 63 17 61 16 94 94 N N/A 30.00 1016 10 16 N/A
7:12 am 07:12 Clear 61 16 59 15 94 94 WNW 3 6 30.00 1016 10 16 N/A
7:32 am 07:32 Partly Cloudy 64 18 61 16 88 88 NNW 6 9 30.00 1016 10 16 N/A
7:52 am 07:52 Sunny 64 18 63 17 94 94 NNW 6 9 30.00 1016 10 16 N/A
8:12 am 08:12 Sunny 66 19 63 17 88 88 NNW 7 11 30.00 1016 10 16 N/A
8:32 am 08:32 Sunny 66 19 64 18 94 94 N 5 7 30.00 1016 7 11 N/A
8:52 am 08:52 Sunny 68 20 64 18 88 88 N 8 13 30.03 1017 10 16 N/A
9:12 am 09:12 Sunny 68 20 64 18 88 88 N 8 13 30.03 1017 10 16 N/A
9:32 am 09:32 Sunny 70 21 66 19 88 88 N 10 17 30.00 1016 10 16 N/A
9:52 am 09:52 Sunny 72 22 66 19 83 83 N 10 17 30.00 1016 10 16 N/A
10:12 am 10:12 Sunny 72 22 66 19 83 83 N 13 20 30.00 1016 10 16 N/A
10:32 am 10:32 Sunny 73 23 66 19 78 78 N 8 13 30.00 1016 10 16 N/A
10:52 am 10:52 Sunny 75 24 66 19 74 74 N 9 15 30.00 1016 10 16 N/A
11:12 am 11:12 Sunny 75 24 66 19 74 74 N 13 20 30.00 1016 10 16 N/A
11:32 am 11:32 Mostly Cloudy 75 24 66 19 74 74 N 14 22 30.00 1016 10 16 N/A
11:52 am 11:52 Cloudy 73 23 66 19 78 78 NNW 15 24 30.03 1017 10 16 N/A
12:12 pm 12:12 Cloudy 72 22 66 19 83 83 NW 12 19 30.03 1017 10 16 N/A
12:32 pm 12:32 Cloudy 73 23 66 19 78 78 NNW 12 19 30.03 1017 10 16 N/A
12:52 pm 12:52 Cloudy 73 23 66 19 78 78 N 9 15 30.03 1017 10 16 N/A
1:12 pm 13:12 Cloudy 73 23 66 19 78 78 N 10 17 30.03 1017 10 16 N/A
1:32 pm 13:32 Partly Cloudy 75 24 64 18 69 69 NNW 9 15 30.00 1016 10 16 N/A
1:52 pm 13:52 Sunny 77 25 64 18 65 65 NNW 8 13 30.00 1016 10 16 N/A
2:12 pm 14:12 Sunny 79 26 64 18 61 61 N 9 15 30.00 1016 10 16 N/A
2:32 pm 14:32 Partly Cloudy 77 25 64 18 65 65 N 13 20 30.00 1016 10 16 N/A
2:52 pm 14:52 Partly Cloudy 77 25 64 18 65 65 NNW 9 15 30.00 1016 10 16 N/A
3:12 pm 15:12 Partly Cloudy 77 25 64 18 65 65 NW 9 15 30.00 1016 10 16 N/A
3:32 pm 15:32 Sunny 79 26 64 18 61 61 NNW 9 15 30.00 1016 10 16 N/A
3:52 pm 15:52 Partly Cloudy 81 27 64 18 58 58 NW 13 20 30.00 1016 10 16 N/A
4:12 pm 16:12 Partly Cloudy 79 26 63 17 58 58 NW 10 17 30.00 1016 10 16 N/A
4:32 pm 16:32 Partly Cloudy 79 26 61 16 54 54 NNW 12 19 30.00 1016 10 16 N/A
4:52 pm 16:52 Partly Cloudy 79 26 61 16 54 54 NW 14 22 30.00 1016 10 16 N/A
5:12 pm 17:12 Sunny 79 26 61 16 54 54 NW 15 24 30.00 1016 10 16 N/A
5:32 pm 17:32 Sunny 77 25 61 16 57 57 N 13 20 30.00 1016 10 16 N/A
5:52 pm 17:52 Sunny 77 25 61 16 57 57 N 9 15 30.00 1016 10 16 N/A
6:12 pm 18:12 Sunny 75 24 59 15 57 57 N 9 15 30.00 1016 10 16 N/A
6:32 pm 18:32 Sunny 75 24 57 14 54 54 NNW 13 20 30.00 1016 10 16 N/A
6:52 pm 18:52 Sunny 73 23 57 14 57 57 NNW 9 15 30.00 1016 10 16 N/A
7:12 pm 19:12 Sunny 73 23 55 13 53 53 NNW 12 19 30.00 1016 10 16 N/A
7:32 pm 19:32 Sunny 72 22 55 13 57 57 NNW 8 13 30.00 1016 10 16 N/A
7:52 pm 19:52 Clear 72 22 55 13 57 57 N 10 17 30.03 1017 10 16 N/A
8:13 pm 20:13 Clear 70 21 55 13 60 60 NNW 10 17 30.06 1018 10 16 N/A
8:32 pm 20:32 Clear 70 21 54 12 57 57 N 9 15 30.06 1018 10 16 N/A
8:52 pm 20:52 Clear 68 20 52 11 56 56 N 13 20 30.06 1018 10 16 N/A
9:13 pm 21:13 Clear 66 19 52 11 60 60 N 16 26 30.09 1019 10 16 N/A
9:32 pm 21:32 Clear 64 18 50 10 60 60 N 12 19 30.09 1019 10 16 N/A
9:52 pm 21:52 Clear 64 18 52 11 64 64 N 9 15 30.09 1019 10 16 N/A
10:13 pm 22:13 Clear 63 17 52 11 68 68 N 8 13 30.09 1019 10 16 N/A
10:32 pm 22:32 Clear 63 17 52 11 68 68 N 8 13 30.09 1019 10 16 N/A
10:52 pm 22:52 Clear 61 16 52 11 72 72 N 8 13 30.09 1019 10 16 N/A
11:13 pm 23:13 Clear 59 15 52 11 77 77 N 6 9 30.09 1019 10 16 N/A
11:32 pm 23:32 Clear 59 15 52 11 77 77 N 8 13 30.09 1019 10 16 N/A
11:52 pm 23:52 Clear 59 15 52 11 77 77 N 7 11 30.09 1019 10 16 N/A

Powered by AerisWeather